Other Public Products
Issued by NWS Charleston, SC

Current Version | Previous Version | Text Only | Print | Product List | Glossary Off
Versions: 1 2 3 4 5 6 7 8 9 10 11 12 13 14 15 16 17 18 19 20 21 22 23 24 25 26 27 28 29 30 31 32 33 34 35 36 37 38 39 40 41 42 43 44 45 46 47 48 49 50
000 FPUS82 KCHS 221012 OPUCHS TEST...KCHS/KSAV Gateway Observations...TEST National Weather Service Charleston SC 600 AM EDT SUN APR 22 2018 NOTE: "fair" indicates few or no clouds below 12,000 feet with no significant weather and/or obstructions to visibility. SCZ050-WAZ558-NCZ071-TXZ119-213-PAZ071-DCZ001-FLZ074-172-MI076- NYZ176-178-MAZ016-IL014-TNZ027-NJZ106-GAZ044-MD014-221100- ...Gateway Observations for Charleston International... CITY SKY/WX TMP DP RH WIND PRES REMARKS Chas Airport MOCLDY 58 55 90 NE8 30.27S Seattle FAIR 46 37 71 NE9 30.40R Charlotte FAIR 49 45 86 CALM 30.32S Dallas DFW CLOUDY 53 48 83 NW12 30.04S Dallas Love CLOUDY 54 47 77 N9 30.05S Philladelphia FAIR 44 25 47 CALM 30.42R Wash National MOCLDY 49 38 65 S6 30.39S Baltimore MOCLDY 47 37 68 CALM 30.39R Miami MOCLDY 76 73 91 E9 30.05R Detroit MOCLDY 36 24 62 CALM 30.39S Newark FAIR 44 18 35 N3 30.39R Laguardia FAIR 47 28 47 NW3 30.38R J F K FAIR 44 20 38 N6 30.39S Boston Logan FAIR 43 21 41 W10 30.33R Ft. Lauderdale MOCLDY 77 75 93 E15G23 30.04S Chicago O`Hare CLOUDY 44 20 38 E7 30.33F Chicago Midway CLOUDY 45 23 42 E8 30.33F Houston Bush MOCLDY 68 66 93 NW10 29.93R Houston Hobby MOCLDY 68 68 100 NW9 29.92R Nashville CLOUDY 57 45 62 CALM 30.16R Atlanta CLOUDY 61 54 77 E10 30.22R $$ GAZ044-118-TXZ119-213-NCZ071-DCZ001-MDZ014-506-PAZ021-071-NJZ106- NYZ176-178-MAZ106-OHZ011-021-055-MIZ076-KYZ091-ILZ014-INZ047- MNZ060-ONZ431-221100- ...Gateway Observations for Savannah International... CITY SKY/WX TMP DP RH WIND PRES REMARKS Savannah Arpt MOCLDY 63 58 83 E7 30.24R Atlanta CLOUDY 61 54 77 E10 30.22R Charlotte FAIR 49 45 86 CALM 30.32S Dallas DFW CLOUDY 53 48 83 NW12 30.04S Houston Bush MOCLDY 68 66 93 NW10 29.93R Wash National MOCLDY 49 38 65 S6 30.39S Wash Dulles CLOUDY 46 38 73 SE5 30.37S Baltimore MOCLDY 47 37 68 CALM 30.39R Philadelphia FAIR 44 25 47 CALM 30.42R Newark FAIR 44 18 35 N3 30.39R Laguardia FAIR 47 28 47 NW3 30.38R J F K FAIR 44 20 38 N6 30.39S Boston FAIR 43 21 41 W10 30.33R Pittsburg MOCLDY 45 23 42 NE7 30.31S Akron CLOUDY 41 24 51 NE8 30.33S Cleveland FAIR 38 34 85 N3 30.39R Cincinnati MOCLDY 49 26 41 E8 30.26S Columbus FAIR 43 30 60 NE5 30.30S Detroit MOCLDY 36 24 62 CALM 30.39S Chicago O`Hare CLOUDY 44 20 38 E7 30.33F Minneapolis FAIR 38 32 79 CALM 30.33S Indianapolis MOCLDY 46 26 45 NE9 30.28F Toronto Canada CLEAR 34 21 60 NW5 30.41R WCI 30 $$

USA.gov is the U.S. government's official web portal to all federal, state and local government web resources and services.